Weather History for Versailles, OH

Change the Weather History Date:

Friday, August 22, 2014

  Actual Average (KDAY) Record (KDAY)
Temperature  
Mean Temperature 75 °F 72 °F  
Max Temperature 82 °F 82 °F 101 °F (1936)
Min Temperature 68 °F 62 °F 47 °F (1909)
Degree Days  
Heating Degree Days 0 0  
Month to date heating degree days 0  
Since 1 June heating degree days 22  
Since 1 July heating degree days 0  
Cooling Degree Days 10 8  
Month to date cooling degree days 182  
Year to date cooling degree days 721  
Since 1 June cooling degree days 651  
Growing Degree Days 25 (Base 50)    
Moisture  
Dew Point 71 °F    
Average Humidity 94    
Maximum Humidity 100    
Minimum Humidity 74    
Precipitation  
Precipitation 0.74 in 0.09 in 2.15 in (1917)
Month to date precipitation 2.10  
Year to date precipitation 27.42  
Snow  
Snow 0.00 in 0.00 in 0.00 in ()
Month to date snowfall 0.0  
Since 1 June snowfall 0.0  
Since 1 July snowfall 0.0  
Snow Depth -    
Sea Level Pressure  
Sea Level Pressure 30.00 in    
Wind  
Wind Speed 6 mph (West)    
Max Wind Speed 15 mph    
Max Gust Speed 23 mph    
Visibility 8 miles    
Events Rain , Thunderstorm    
T = Trace of Precipitation, MM = Missing Value Source: NWS Daily Summary

Daily Weather History Graph

Daily Weather History Graph

Search for Another Location

Airport:

Trip Planner

Search our weather history database for the weather conditions in past years. The results will help you decide how hot, cold, wet, or windy it might be!

Date:

Astronomy

Aug. 22, 2014 Rise Set
Actual Time 6:56 AM EDT 8:25 PM EDT
Civil Twilight 6:27 AM EDT 8:53 PM EDT
Nautical Twilight 5:53 AM EDT 9:27 PM EDT
Astronomical Twilight 5:16 AM EDT 10:04 PM EDT
Moon 4:17 AM EDT (8/22) 6:33 PM EDT (8/22)
Length of Visible Light 14h 26m
Length of Day
13h 29m
Waning Crescent, 8% of the Moon is Illuminated
Aug 22
Waning Crescent
Aug 25
New
Sep 2
First Quarter
Sep 8
Full
Sep 15
Last Quarter

Hourly Weather History & Observations

Time (EDT) Temp. Heat Index Dew Point Humidity Pressure Visibility Wind Dir Wind Speed Gust Speed Precip Events Conditions
12:15 AM 68.0 °F - 68.0 °F 100% 30.01 in 10.0 mi WSW 12.7 mph - 0.01 in Rain , Thunderstorm Light Thunderstorms and Rain
12:35 AM 68.0 °F - 68.0 °F 100% 30.02 in 10.0 mi West 15.0 mph 23.0 mph 0.03 in Rain , Thunderstorm Light Thunderstorms and Rain
12:55 AM 68.0 °F - 68.0 °F 100% 30.02 in 10.0 mi WSW 13.8 mph 20.7 mph 0.03 in Rain , Thunderstorm Light Thunderstorms and Rain
1:15 AM 68.0 °F - 68.0 °F 100% 30.02 in 10.0 mi West 11.5 mph - N/A   Scattered Clouds
1:35 AM 69.8 °F - 69.8 °F 100% 30.01 in 7.0 mi WSW 12.7 mph 16.1 mph 0.03 in Rain Rain
2:15 AM 69.8 °F - 69.8 °F 100% 30.01 in 10.0 mi West 5.8 mph - N/A   Light Drizzle
2:35 AM 69.8 °F - 69.8 °F 100% 29.99 in 10.0 mi SSW 3.5 mph - N/A Rain Rain
3:15 AM 69.8 °F - 69.8 °F 100% 29.98 in 10.0 mi WSW 4.6 mph - 0.01 in   Mostly Cloudy
3:35 AM 69.8 °F - 69.8 °F 100% 29.98 in 2.0 mi ENE 4.6 mph - 0.16 in Rain , Thunderstorm Heavy Thunderstorms and Rain
3:55 AM 69.8 °F - 69.8 °F 100% 29.99 in 10.0 mi Calm Calm - 0.17 in Thunderstorm Overcast
4:15 AM 69.8 °F - 69.8 °F 100% 29.98 in 7.0 mi ENE 4.6 mph - 0.02 in Rain Rain
4:35 AM 69.8 °F - 69.8 °F 100% 29.98 in 10.0 mi SE 3.5 mph - 0.03 in Thunderstorm Thunderstorm
4:55 AM 69.8 °F - 69.8 °F 100% 29.97 in 10.0 mi Calm Calm - 0.03 in Rain , Thunderstorm Light Thunderstorms and Rain
5:15 AM 69.8 °F - 69.8 °F 100% 29.98 in 7.0 mi Calm Calm - N/A Rain , Thunderstorm Light Thunderstorms and Rain
5:35 AM 69.8 °F - 69.8 °F 100% 29.99 in 7.0 mi West 8.1 mph - 0.01 in Thunderstorm Overcast
5:55 AM 69.8 °F - 69.8 °F 100% 30.00 in 7.0 mi Calm Calm - 0.01 in Rain , Thunderstorm Light Thunderstorms and Rain
6:15 AM 69.8 °F - 69.8 °F 100% 30.02 in 5.0 mi Calm Calm - 0.03 in Rain , Thunderstorm Light Thunderstorms and Rain
6:35 AM 69.8 °F - 69.8 °F 100% 30.03 in 4.0 mi Calm Calm - 0.08 in Rain , Thunderstorm Thunderstorms and Rain
6:55 AM 69.8 °F - 69.8 °F 100% 30.01 in 4.0 mi Calm Calm - 0.13 in Rain , Thunderstorm Thunderstorms and Rain
7:15 AM 68.0 °F - 68.0 °F 100% 30.03 in 3.0 mi Calm Calm - 0.03 in Rain Rain
7:35 AM 68.0 °F - 68.0 °F 100% 30.02 in 3.0 mi SSW 3.5 mph - 0.08 in Rain Rain
7:55 AM 68.0 °F - 68.0 °F 100% 30.01 in 4.0 mi ESE 3.5 mph - 0.12 in Rain , Thunderstorm Rain
8:15 AM 68.0 °F - 68.0 °F 100% 30.01 in 3.0 mi SW 4.6 mph - 0.04 in Rain Rain
8:35 AM 68.0 °F - 68.0 °F 100% 30.01 in 3.0 mi SW 6.9 mph - 0.08 in Rain Light Rain
8:55 AM 68.0 °F - 68.0 °F 100% 30.02 in 7.0 mi West 3.5 mph - 0.09 in Rain , Thunderstorm Rain
9:15 AM 69.8 °F - 69.8 °F 100% 30.03 in 5.0 mi West 12.7 mph - 0.05 in Rain Rain
9:35 AM 69.8 °F - 69.8 °F 100% 30.02 in 4.0 mi WSW 5.8 mph - 0.11 in Rain , Thunderstorm Rain
9:55 AM 69.8 °F - 69.8 °F 100% 30.02 in 10.0 mi WSW 5.8 mph - 0.13 in Rain Light Rain
10:15 AM 69.8 °F - 69.8 °F 100% 30.01 in 10.0 mi WSW 4.6 mph - N/A   Light Drizzle
10:35 AM 69.8 °F - 69.8 °F 100% 29.99 in 10.0 mi SW 6.9 mph - N/A Rain Light Rain
10:55 AM 71.6 °F - 71.6 °F 100% 29.99 in 10.0 mi SW 4.6 mph - N/A   Overcast
11:15 AM 73.4 °F - 73.4 °F 100% 29.98 in 10.0 mi WSW 6.9 mph - N/A   Scattered Clouds
11:35 AM 73.4 °F - 73.4 °F 100% 29.98 in 10.0 mi Calm Calm - N/A   Mostly Cloudy
11:55 AM 73.4 °F - 73.4 °F 100% 29.98 in 10.0 mi SW 4.6 mph - N/A   Overcast
12:15 PM 75.2 °F - 73.4 °F 94% 29.98 in 10.0 mi WSW 5.8 mph - N/A   Scattered Clouds
12:35 PM 77.0 °F - 75.2 °F 94% 29.97 in 10.0 mi SW 9.2 mph - N/A   Clear
12:55 PM 77.0 °F - 73.4 °F 89% 29.98 in 10.0 mi West 5.8 mph - N/A   Clear
1:15 PM 78.8 °F - 73.4 °F 83% 29.99 in 10.0 mi WNW 5.8 mph - N/A   Clear
1:35 PM 80.6 °F 85.4 °F 73.4 °F 79% 29.99 in 10.0 mi West 8.1 mph - N/A   Clear
1:55 PM 80.6 °F 85.4 °F 73.4 °F 79% 29.99 in 10.0 mi WNW 6.9 mph - N/A   Scattered Clouds
2:15 PM 80.6 °F 85.4 °F 73.4 °F 79% 29.99 in 10.0 mi West 9.2 mph - N/A   Mostly Cloudy
2:35 PM 80.6 °F 85.4 °F 73.4 °F 79% 29.98 in 10.0 mi NNW 6.9 mph - N/A   Mostly Cloudy
2:55 PM 82.4 °F 88.2 °F 73.4 °F 74% 29.99 in 10.0 mi WNW 8.1 mph - N/A   Mostly Cloudy
3:15 PM 80.6 °F 85.4 °F 73.4 °F 79% 29.99 in 10.0 mi WNW 8.1 mph - N/A   Mostly Cloudy
3:35 PM 80.6 °F 85.4 °F 73.4 °F 79% 29.98 in 10.0 mi NW 9.2 mph - N/A   Overcast
3:55 PM 80.6 °F 85.4 °F 73.4 °F 79% 29.98 in 10.0 mi NW 9.2 mph - N/A   Overcast
4:15 PM 80.6 °F 85.4 °F 73.4 °F 79% 29.98 in 10.0 mi NW 6.9 mph - N/A   Overcast
4:35 PM 80.6 °F 85.4 °F 73.4 °F 79% 29.98 in 10.0 mi WNW 5.8 mph - N/A   Overcast
4:55 PM 78.8 °F - 73.4 °F 83% 29.98 in 10.0 mi NNW 5.8 mph - N/A   Overcast
5:15 PM 78.8 °F - 73.4 °F 83% 29.98 in 10.0 mi NNW 4.6 mph - N/A   Overcast
5:35 PM 78.8 °F - 73.4 °F 83% 29.98 in 10.0 mi NW 5.8 mph - N/A   Overcast
5:55 PM 78.8 °F - 73.4 °F 83% 29.98 in 10.0 mi NW 3.5 mph - N/A   Overcast
6:15 PM 78.8 °F - 73.4 °F 83% 29.97 in 10.0 mi West 6.9 mph - N/A   Mostly Cloudy
6:35 PM 78.8 °F - 73.4 °F 83% 29.97 in 10.0 mi WNW 3.5 mph - N/A   Scattered Clouds
6:55 PM 78.8 °F - 73.4 °F 83% 29.97 in 10.0 mi NW 5.8 mph - N/A   Clear
7:15 PM 78.8 °F - 73.4 °F 83% 29.98 in 10.0 mi NW 5.8 mph - N/A   Clear
7:55 PM 77.0 °F - 73.4 °F 89% 29.97 in 10.0 mi Calm Calm - N/A   Clear
8:15 PM 77.0 °F - 73.4 °F 89% 29.98 in 10.0 mi NNW 3.5 mph - N/A   Clear
8:35 PM 73.4 °F - 73.4 °F 100% 29.98 in 10.0 mi Calm Calm - N/A   Clear
8:55 PM 73.4 °F - 73.4 °F 100% 29.99 in 10.0 mi Calm Calm - N/A   Clear
9:15 PM 73.4 °F - 73.4 °F 100% 29.99 in 10.0 mi Calm Calm - N/A   Clear
9:55 PM 71.6 °F - 71.6 °F 100% 30.00 in 10.0 mi Calm Calm - N/A   Clear
10:15 PM 69.8 °F - 69.8 °F 100% 30.01 in 5.0 mi West 3.5 mph - N/A   Clear
10:35 PM 69.8 °F - 69.8 °F 100% 30.02 in 7.0 mi Calm Calm - N/A   Scattered Clouds
10:55 PM 69.8 °F - 69.8 °F 100% 30.02 in 7.0 mi Calm Calm - N/A   Mostly Cloudy
11:15 PM 69.8 °F - 69.8 °F 100% 30.03 in 5.0 mi Calm Calm - N/A   Scattered Clouds
11:35 PM 69.8 °F - 69.8 °F 100% 30.03 in 7.0 mi Calm Calm - N/A   Clear
11:55 PM 69.8 °F - 69.8 °F 100% 30.02 in 1.8 mi Calm Calm - N/A   Mist